Location: Latina
(41.4670°N, 12.8670°E)
Time: 18:00:25
(UTC+02:00)

ISS - Pass Details

Date: 19 May 2021
Orbit: 417 x 422 km, 51.6° (Epoch: 18 June)

Event Time Altitude Azimuth Distance (km) Brightness Sun altitude
Rises 23:42:48 0° 302° (WNW) 2,368 0.9 -25.7°
Reaches altitude 10° 23:45:37 10° 327° (NNW) 1,505 0.0 -25.9°
Maximum altitude 23:47:37 15° 4° (N) 1,246 -0.6 -26.0°
Drops below altitude 10° 23:49:38 10° 41° (NE) 1,506 -0.6 -26.1°
Enters shadow 23:49:58 - 45° (NE) 1,588 -0.6 -26.1°
